Weather Roundup
Issued by NWS Chicago, IL

Home | Current Version | Previous Version | Graphics & Text | Print | Product List | Glossary On
Versions: 1 2 3 4 5 6 7 8 9 10 11 12 13 14 15 16 17 18 19 20 21 22 23 24 25 26 27 28 29 30 31 32 33 34 35 36 37 38 39 40 41 42 43 44 45 46 47 48 49 50
000
NZUS59 KLOT 011610
HRRLOT

CHICAGO AREA WEATHER ROUNDUP
NATIONAL WEATHER SERVICE CHICAGO/ROMEOVILLE IL
1100 AM CDT WED OCT 01 2014

NOTE: "FAIR" INDICATES FEW OR NO CLOUDS BELOW 12,000 FEET WITH NO
SIGNIFICANT WEATHER AND/OR OBSTRUCTIONS TO VISIBILITY.

* THESE STATIONS ARE NOT UNDER NWS QUALITY CONTROL. THEY ALSO MAY NOT
  REPORT WEATHER SUCH AS PRECIPITATION OR FOG.

ILZ005-006-012>014-019>023-011700-
NORTHEAST ILLINOIS

CITY           SKY/WX    TMP DP  RH WIND       PRES   REMARKS
OHARE          MOSUNNY   61  47  59 SE10      30.01F
MIDWAY         MOSUNNY   62  49  62 VRB7      30.02S
AURORA         SUNNY     63  49  60 SE13      30.00F
LANSING*       SUNNY     61  51  70 SE7       30.03F
JOLIET*        SUNNY     61  49  64 E9        30.00F
WAUKEGAN       MOSUNNY   59  49  69 SE12      30.01
DUPAGE AIRPORT SUNNY     62  48  60 SE10      30.00F
WHEELING       SUNNY     63  47  55 SE8       30.02F
KANKAKEE*      SUNNY     63  52  68 E9        30.02S
MORRIS*        SUNNY     64  52  66 SE8       29.98F
LEWIS AIRPORT* SUNNY     62  49  62 S9        30.01F
NORTHERLY IS   NOT AVBL
$$

WIZ051-052-058>065-066-070>072-011700-
SOUTHEAST WISCONSIN

CITY           SKY/WX    TMP DP  RH WIND       PRES   REMARKS
MILWAUKEE      MOSUNNY   61  49  64 SE15G21   30.01F
KENOSHA*       MOSUNNY   60  50  69 SE12      30.01F
RACINE*        MOSUNNY   61  48  62 SE15      30.03F
BURLINGTON     SUNNY     61  47  61 SE8       30.00F
WAUKESHA       MOSUNNY   57  48  72 SE7       30.01F
WEST BEND      PTSUNNY   59  46  63 SE9       30.00F
$$

INZ001>003-010>013-019-020-011700-
NORTHWEST INDIANA

CITY           SKY/WX    TMP DP  RH WIND       PRES   REMARKS
GARY*          SUNNY     63  50  63 SE9       30.04S
MICHIGAN CITY* NOT AVBL
RENSSELAER*    NOT AVBL
VALPARAISO     SUNNY     60  49  66 S8        30.04F
$$

LMZ740>746-011700-
SOUTHERN LAKE MICHIGAN

STATION/POSITION TIME  SKY/WX   TEMP WIND        PRES    VSBY
                                AIR  DIR/SP/G
                 (UTC)          (F)  (DEG/KT/KT) (MB)    (MI)
HARRISON CRIB    1600            56  150/ 12/ 16   N/A
BURNHAM HARBOR   1600            60  110/  9/ 12   N/A
CALUMET HARBOR   1600            60  110/  6/  9 1015.6S
BURNS HARBOR     NOT AVBL
MICHIGAN CITY    1500            56  120/  9/ 11   N/A
$$

ABBREVIATIONS USED IN REMARKS
   TC - TEMPERATURE IN CELSIUS
  WCI - WIND CHILL INDEX
   HX - HEAT INDEX
  VSB - VISIBILITY
$$



USA.gov is the U.S. government's official web portal to all federal, state and local government web resources and services.